QPF
0.00 0.00 0.00 0.00 0.00 0.00 0.00 0.00 0.01 0.00 0.01 0.02 0.01 0.01 0.01 0.00 0.00 0.00 0.01 0.02 0.03 0.04 0.06 0.07 0.07 0.07 0.08 0.05 0.02 0.02 0.02 0.02 0.02 0.01 0.01 0.00 0.00 0.00 0.00 0.00 0.00 0.00 0.00 0.00
0.00 0.00 0.00 0.00 0.00 0.00 0.00 0.00 0.00 0.00 0.00 0.02 0.04 0.01 0.01 0.00 0.00 0.00 0.00 0.00 0.00 0.00 0.01 0.01 0.01 0.02 0.01 0.00 0.00 0.00 0.00 0.00 0.01 0.00 0.01 0.01 0.01 0.00 0.00 0.01 0.01 0.00 0.00 0.00
0.00 0.00 0.00 0.00 0.00 0.00 0.00 0.00 0.00 0.01 0.01 0.01 0.02 0.01 0.00 0.00 0.00 0.00 0.00 0.00 0.00 0.00 0.00 0.00 0.00 0.00 0.00 0.00 0.00 0.00 0.00 0.00 0.00 0.00 0.00 0.00 0.01 0.02 0.02 0.02 0.01 0.01 0.02 0.02
0.00 0.00 0.00 0.00 0.00 0.00 0.00 0.00 0.00 0.00 0.00 0.02 0.00 0.00 0.00 0.00 0.00 0.00 0.00 0.00 0.00 0.00 0.00 0.00 0.00 0.00 0.00 0.00 0.00 0.00 0.00 0.00 0.00 0.00 0.00 0.00 0.00 0.00 0.00 0.01 0.01 0.02 0.03 0.05
0.00 0.00 0.00 0.00 0.00 0.00 0.01 0.01 0.00 0.00 0.01 0.00 0.00 0.00 0.00 0.00 0.00 0.00 0.00 0.00 0.00 0.00 0.00 0.00 0.00 0.00 0.00 0.00 0.00 0.00 0.00 0.00 0.00 0.00 0.00 0.00 0.00 0.00 0.00 0.00 0.01 0.02 0.03 0.01
0.00 0.00 0.00 0.00 0.00 0.00 0.00 0.00 0.00 0.01 0.00 0.00 0.00 0.00 0.00 0.00 0.00 0.00 0.00 0.00 0.00 0.00 0.00 0.00 0.00 0.00 0.00 0.00 0.00 0.00 0.00 0.00 0.00 0.00 0.00 0.00 0.00 0.00 0.00 0.00 0.00 0.00 0.00 0.00
0.00 0.00 0.00 0.00 0.00 0.00 0.00 0.00 0.00 0.01 0.00 0.00 0.00 0.00 0.00 0.00 0.00 0.00 0.00 0.00 0.00 0.00 0.00 0.00 0.00 0.00 0.00 0.00 0.00 0.00 0.00 0.00 0.00 0.00 0.00 0.00 0.00 0.00 0.00 0.00 0.00 0.00 0.00 0.00
0.00 0.00 0.00 0.00 0.00 0.00 0.00 0.00 0.00 0.02 0.00 0.00 0.00 0.00 0.00 0.00 0.00 0.00 0.00 0.00 0.00 0.00 0.00 0.00 0.00 0.00 0.00 0.00 0.00 0.00 0.00 0.00 0.00 0.00 0.00 0.00 0.00 0.00 0.00 0.00 0.00 0.00 0.00 0.00
0.00 0.00 0.00 0.00 0.00 0.00 0.00 0.00 0.00 0.01 0.00 0.00 0.00 0.00 0.00 0.00 0.00 0.00 0.00 0.00 0.00 0.00 0.00 0.00 0.00 0.00 0.00 0.00 0.00 0.00 0.00 0.00 0.00 0.00 0.00 0.00 0.00 0.00 0.00 0.00 0.00 0.00 0.00 0.00
0.00 0.00 0.00 0.00 0.00 0.01 0.00 0.00 0.00 0.00 0.00 0.00 0.00 0.00 0.00 0.00 0.00 0.00 0.00 0.00 0.00 0.00 0.00 0.00 0.00 0.00 0.00 0.00 0.00 0.00 0.00 0.00 0.00 0.00 0.00 0.00 0.00 0.00 0.00 0.00 0.00 0.00 0.00 0.00
0.01 0.00 0.00 0.00 0.00 0.00 0.00 0.00 0.00 0.00 0.00 0.00 0.00 0.00 0.00 0.00 0.00 0.00 0.00 0.00 0.00 0.00 0.00 0.00 0.00 0.00 0.00 0.00 0.00 0.00 0.00 0.00 0.00 0.00 0.00 0.00 0.00 0.00 0.00 0.00 0.00 0.00 0.00 0.00
0.00 0.00 0.00 0.00 0.00 0.00 0.00 0.00 0.00 0.00 0.00 0.00 0.00 0.00 0.00 0.00 0.00 0.00 0.00 0.00 0.00 0.00 0.00 0.00 0.00 0.00 0.00 0.00 0.00 0.00 0.00 0.00 0.00 0.00 0.00 0.00 0.00 0.00 0.00 0.00 0.00 0.00 0.00 0.00
0.00 0.00 0.00 0.00 0.00 0.00 0.00 0.00 0.00 0.00 0.00 0.00 0.00 0.00 0.00 0.00 0.00 0.00 0.00 0.00 0.00 0.00 0.00 0.00 0.00 0.00 0.00 0.00 0.00 0.00 0.00 0.00 0.00 0.00 0.00 0.00 0.00 0.00 0.00 0.00 0.00 0.00 0.00 0.00
0.00 0.00 0.00 0.00 0.00 0.00 0.00 0.00 0.00 0.00 0.00 0.00 0.00 0.00 0.00 0.00 0.00 0.00 0.00 0.00 0.00 0.00 0.00 0.00 0.00 0.00 0.00 0.00 0.00 0.00 0.00 0.00 0.00 0.00 0.00 0.00 0.00 0.00 0.00 0.00 0.00 0.00 0.00 0.00
0.00 0.00 0.00 0.00 0.00 0.00 0.00 0.00 0.00 0.00 0.00 0.00 0.00 0.00 0.00 0.00 0.00 0.00 0.00 0.00 0.00 0.00 0.00 0.00 0.00 0.00 0.00 0.00 0.00 0.00 0.00 0.00 0.00 0.00 0.00 0.00 0.00 0.00 0.00 0.00 0.00 0.00 0.00 0.00
0.00 0.00 0.00 0.00 0.00 0.00 0.00 0.00 0.00 0.00 0.00 0.00 0.00 0.00 0.00 0.00 0.00 0.00 0.00 0.00 0.00 0.00 0.00 0.00 0.00 0.00 0.00 0.00 0.00 0.00 0.00 0.00 0.00 0.00 0.00 0.00 0.00 0.00 0.00 0.00 0.00 0.00 0.00 0.00
0.00 0.00 0.00 0.00 0.00 0.00 0.00 0.00 0.00 0.00 0.00 0.00 0.00 0.00 0.00 0.00 0.00 0.00 0.00 0.00 0.00 0.00 0.00 0.00 0.00 0.00 0.00 0.00 0.00 0.00 0.00 0.00 0.00 0.00 0.00 0.00 0.00 0.00 0.00 0.00 0.00 0.00 0.00 0.00
0.00 0.00 0.00 0.00 0.00 0.00 0.00 0.00 0.00 0.00 0.00 0.00 0.00 0.00 0.00 0.00 0.00 0.00 0.00 0.00 0.00 0.00 0.00 0.00 0.00 0.00 0.00 0.00 0.00 0.00 0.00 0.00 0.00 0.00 0.00 0.00 0.00 0.00 0.00 0.00 0.00 0.00 0.00 0.00
0.00 0.00 0.00 0.00 0.00 0.00 0.00 0.00 0.00 0.00 0.00 0.00 0.00 0.00 0.00 0.00 0.00 0.00 0.00 0.00 0.00 0.00 0.00 0.00 0.00 0.00 0.00 0.00 0.00 0.00 0.00 0.00 0.00 0.00 0.00 0.00 0.00 0.00 0.00 0.00 0.00 0.00 0.00 0.00
0.00 0.00 0.00 0.00 0.00 0.00 0.00 0.00 0.00 0.00 0.00 0.00 0.00 0.00 0.00 0.00 0.00 0.00 0.00 0.00 0.00 0.00 0.00 0.00 0.00 0.00 0.00 0.00 0.00 0.00 0.00 0.00 0.00 0.00 0.00 0.00 0.00 0.00 0.00 0.00 0.00 0.00 0.00 0.00
0.00 0.00 0.00 0.00 0.00 0.00 0.00 0.00 0.00 0.00 0.00 0.00 0.00 0.00 0.00 0.00 0.00 0.00 0.00 0.00 0.00 0.00 0.00 0.00 0.00 0.00 0.00 0.00 0.00 0.00 0.00 0.00 0.00 0.00 0.00 0.00 0.00 0.00 0.00 0.00 0.00 0.00 0.00 0.00
0.00 0.00 0.00 0.00 0.00 0.00 0.00 0.00 0.00 0.00 0.00 0.00 0.00 0.00 0.00 0.00 0.00 0.00 0.00 0.00 0.00 0.00 0.00 0.00 0.00 0.00 0.00 0.00 0.00 0.00 0.00 0.00 0.00 0.00 0.00 0.00 0.00 0.00 0.00 0.00 0.00 0.00 0.00 0.00
0.00 0.00 0.00 0.00 0.00 0.00 0.00 0.00 0.00 0.00 0.00 0.00 0.00 0.00 0.00 0.00 0.00 0.00 0.00 0.00 0.00 0.00 0.00 0.00 0.00 0.00 0.00 0.00 0.00 0.00 0.00 0.00 0.00 0.00 0.00 0.00 0.00 0.00 0.00 0.00 0.00 0.00 0.00 0.00
0.00 0.00 0.00 0.00 0.00 0.00 0.00 0.00 0.00 0.00 0.00 0.00 0.00 0.00 0.00 0.00 0.00 0.00 0.00 0.00 0.00 0.00 0.00 0.00 0.00 0.00 0.00 0.00 0.00 0.00 0.00 0.00 0.00 0.00 0.00 0.00 0.00 0.00 0.00 0.00 0.00 0.00 0.00 0.00
0.00 0.00 0.00 0.00 0.00 0.00 0.00 0.00 0.00 0.00 0.00 0.00 0.00 0.00 0.00 0.00 0.00 0.00 0.00 0.00 0.00 0.00 0.00 0.00 0.00 0.00 0.00 0.00 0.00 0.00 0.00 0.00 0.00 0.00 0.00 0.00 0.00 0.00 0.00 0.00 0.00 0.00 0.00 0.00
0.00 0.00 0.00 0.00 0.00 0.00 0.00 0.00 0.00 0.00 0.00 0.00 0.00 0.00 0.00 0.00 0.00 0.00 0.00 0.00 0.00 0.00 0.00 0.00 0.00 0.00 0.00 0.00 0.00 0.00 0.00 0.00 0.00 0.00 0.00 0.00 0.00 0.00 0.00 0.00 0.00 0.00 0.00 0.00
0.00 0.00 0.00 0.00 0.00 0.00 0.00 0.00 0.00 0.00 0.00 0.00 0.00 0.00 0.00 0.00 0.00 0.00 0.00 0.00 0.00 0.00 0.00 0.00 0.00 0.00 0.00 0.00 0.00 0.00 0.00 0.00 0.00 0.00 0.00 0.00 0.00 0.00 0.00 0.00 0.00 0.00 0.00 0.00
MSLP
1009.05 1008.45 1008.08 1007.53 1006.93 1006.45 1006.37 1006.12 1005.95 1004.75 1004.37 1003.79 1004.47 1004.91 1005.55 1005.72 1005.82 1005.60 1005.80 1005.95 1006.13 1006.52 1006.84 1006.90 1006.95 1007.13 1007.24 1007.32 1007.35 1006.93 1006.65 1007.18 1007.38 1007.46 1007.47 1007.81 1008.07 1008.23 1008.42 1008.64 1008.77 1008.90 1009.14 1009.38
1009.87 1008.78 1008.19 1007.24 1006.20 1005.59 1005.13 1005.00 1005.10 1004.86 1004.39 1004.13 1004.20 1005.01 1005.98 1006.82 1006.89 1007.23 1007.74 1008.41 1008.26 1008.42 1008.36 1008.17 1008.22 1008.16 1008.56 1008.85 1008.78 1008.18 1007.90 1008.15 1008.23 1008.04 1007.85 1007.82 1007.73 1007.72 1007.89 1008.10 1008.24 1008.44 1008.56 1008.64
1010.53 1009.71 1008.61 1006.79 1005.33 1004.61 1003.88 1003.59 1003.72 1003.67 1003.82 1004.24 1004.75 1005.38 1006.03 1007.40 1008.25 1009.56 1010.21 1009.80 1009.94 1009.96 1009.76 1009.53 1009.68 1010.46 1010.12 1010.06 1009.85 1009.38 1009.28 1009.28 1009.11 1009.12 1008.93 1008.73 1008.50 1008.14 1007.93 1007.73 1007.56 1007.59 1007.65 1007.89
1011.10 1010.20 1008.53 1005.56 1004.55 1003.28 1002.79 1002.43 1002.86 1003.19 1003.69 1004.58 1005.52 1006.85 1007.99 1008.50 1008.94 1010.39 1010.98 1010.48 1011.56 1011.40 1011.21 1011.16 1011.10 1011.04 1010.94 1010.94 1010.66 1010.46 1010.39 1010.54 1010.60 1010.34 1009.87 1009.59 1009.33 1009.12 1008.98 1008.69 1008.28 1007.75 1007.40 1007.13
1011.53 1010.57 1008.34 1005.88 1004.36 1003.82 1003.43 1002.92 1002.78 1003.39 1004.39 1005.96 1006.29 1007.59 1009.51 1010.17 1010.80 1011.61 1012.10 1012.55 1012.48 1012.21 1012.71 1012.26 1011.91 1011.91 1012.13 1012.21 1012.12 1011.95 1011.76 1011.62 1011.48 1011.16 1010.83 1010.65 1010.43 1010.29 1010.01 1009.56 1009.39 1009.22 1009.46 1009.22
1011.70 1010.83 1008.84 1005.67 1004.59 1003.71 1003.62 1003.51 1003.34 1003.93 1005.15 1005.97 1006.57 1008.44 1010.96 1011.45 1012.26 1012.86 1013.20 1013.29 1013.09 1013.35 1013.72 1013.45 1013.39 1013.29 1013.44 1013.45 1013.19 1013.04 1013.08 1012.95 1012.61 1012.30 1012.06 1011.73 1011.54 1011.30 1011.10 1010.90 1010.98 1011.06 1011.02 1011.09
1011.32 1010.75 1008.80 1006.27 1005.28 1004.83 1004.87 1005.14 1004.41 1004.36 1005.29 1006.26 1007.82 1009.12 1011.14 1012.57 1013.39 1013.75 1014.00 1013.99 1014.29 1014.60 1014.95 1015.04 1014.78 1014.48 1014.21 1014.36 1014.40 1014.56 1014.26 1013.91 1013.56 1013.22 1012.85 1012.61 1012.26 1012.01 1011.89 1011.88 1011.95 1012.02 1012.02 1012.19
1011.01 1010.68 1009.14 1006.89 1005.98 1005.83 1005.32 1005.62 1005.62 1005.93 1006.65 1007.98 1009.47 1010.92 1012.36 1013.50 1014.03 1014.50 1014.50 1014.61 1015.06 1015.22 1015.46 1015.52 1015.33 1015.12 1015.14 1015.01 1015.58 1015.43 1015.23 1014.96 1014.73 1014.34 1013.95 1013.56 1013.21 1013.03 1012.80 1012.63 1012.71 1012.99 1013.11 1013.23
1010.53 1009.42 1008.66 1008.11 1007.67 1007.18 1006.76 1006.73 1007.18 1008.10 1008.71 1009.54 1010.59 1012.28 1013.06 1014.51 1014.98 1015.67 1015.76 1016.07 1016.44 1016.58 1016.72 1016.84 1016.70 1016.18 1015.89 1016.07 1016.18 1016.19 1016.11 1015.76 1015.52 1015.31 1014.94 1014.67 1014.31 1014.26 1014.01 1013.97 1013.85 1013.90 1013.97 1014.07
1010.31 1009.66 1009.56 1009.24 1009.05 1008.80 1009.14 1008.70 1009.20 1009.67 1010.21 1011.16 1012.14 1013.59 1014.48 1015.63 1016.33 1017.04 1017.33 1017.41 1017.60 1017.63 1017.50 1017.50 1017.53 1017.16 1016.90 1016.89 1017.00 1017.13 1016.98 1016.91 1016.72 1016.47 1016.28 1016.08 1015.78 1015.71 1015.65 1015.59 1015.45 1015.40 1015.20 1015.01
1010.46 1010.25 1010.19 1010.64 1010.73 1010.85 1011.39 1011.40 1011.19 1011.93 1012.41 1013.14 1013.56 1014.95 1015.75 1016.56 1017.45 1017.97 1018.24 1018.36 1018.42 1018.45 1018.56 1018.70 1018.98 1018.82 1018.38 1017.92 1018.15 1018.07 1017.91 1017.95 1017.96 1017.82 1017.59 1017.53 1017.46 1017.45 1017.33 1017.36 1017.03 1016.83 1016.77 1016.66
1011.28 1010.75 1010.74 1011.88 1012.31 1012.53 1012.45 1013.17 1013.91 1014.09 1014.62 1015.35 1015.86 1016.75 1017.54 1018.22 1018.70 1019.21 1019.65 1019.74 1019.65 1019.79 1019.97 1020.11 1020.13 1019.92 1019.75 1019.49 1019.28 1019.31 1018.96 1019.08 1019.21 1019.02 1018.95 1018.96 1018.96 1018.98 1018.96 1018.82 1018.63 1018.26 1018.17 1017.92
1012.61 1012.45 1012.51 1013.06 1013.75 1014.11 1014.35 1014.76 1015.67 1016.12 1016.68 1017.57 1018.24 1018.75 1019.22 1019.69 1020.35 1020.47 1020.75 1021.01 1021.07 1021.38 1021.44 1021.31 1021.19 1021.12 1021.15 1020.98 1020.74 1020.30 1020.13 1020.28 1020.27 1020.24 1020.24 1020.24 1020.27 1020.32 1020.39 1020.37 1020.15 1019.75 1019.49 1019.39
1013.69 1013.41 1013.93 1014.27 1015.33 1015.83 1015.94 1016.56 1017.39 1018.02 1018.59 1019.09 1019.68 1020.12 1020.37 1020.85 1021.48 1021.77 1021.89 1022.51 1022.81 1022.80 1022.54 1022.60 1022.71 1022.65 1022.36 1022.03 1021.79 1021.47 1021.47 1021.38 1021.44 1021.46 1021.42 1021.40 1021.40 1021.42 1021.46 1021.43 1021.50 1021.60 1021.39 1020.98
1014.86 1014.62 1015.09 1016.02 1016.58 1017.08 1017.48 1017.90 1018.57 1019.37 1019.94 1020.37 1020.85 1021.31 1021.85 1022.25 1022.82 1023.27 1023.59 1023.95 1023.93 1023.62 1023.56 1023.61 1023.51 1023.44 1023.10 1022.84 1022.70 1022.60 1022.38 1022.46 1022.31 1022.21 1022.23 1022.24 1022.32 1022.51 1022.63 1022.74 1022.92 1022.93 1022.55 1022.39
1016.11 1016.19 1016.43 1016.75 1017.39 1017.94 1018.41 1019.00 1019.81 1020.87 1021.34 1021.99 1022.57 1023.00 1023.56 1023.98 1024.38 1024.77 1024.95 1024.90 1024.73 1025.01 1025.05 1024.94 1024.84 1024.61 1024.06 1023.75 1023.57 1023.38 1023.23 1023.02 1022.90 1022.92 1023.04 1023.14 1023.30 1023.47 1023.81 1024.02 1024.15 1024.32 1024.09 1024.12
1017.16 1017.30 1017.43 1017.87 1018.47 1018.98 1019.40 1020.11 1020.76 1021.36 1022.04 1022.72 1023.37 1023.82 1024.45 1025.08 1025.36 1025.74 1026.08 1026.28 1026.29 1026.33 1026.30 1026.17 1025.96 1025.29 1024.86 1024.42 1024.14 1024.07 1023.90 1023.86 1023.77 1023.81 1024.04 1024.29 1024.43 1024.40 1024.63 1025.01 1025.23 1025.53 1025.61 1025.48
1018.53 1018.56 1018.55 1018.95 1019.51 1020.02 1020.77 1021.44 1021.97 1022.39 1023.17 1023.87 1024.53 1025.31 1025.84 1026.41 1026.85 1027.30 1027.46 1027.36 1027.20 1027.19 1027.14 1026.79 1026.26 1025.77 1025.37 1025.05 1024.83 1024.72 1024.67 1024.67 1024.71 1024.90 1025.11 1025.23 1025.48 1025.52 1025.72 1025.94 1026.34 1026.67 1026.88 1026.84
1020.22 1020.22 1020.42 1020.79 1021.21 1021.70 1022.53 1023.05 1023.40 1023.81 1024.59 1025.14 1025.83 1026.71 1027.36 1027.69 1028.04 1028.25 1028.08 1028.05 1028.19 1028.14 1027.99 1027.34 1026.82 1026.45 1026.16 1025.86 1025.60 1025.57 1025.59 1025.71 1025.80 1026.02 1026.18 1026.48 1026.62 1026.71 1026.89 1027.14 1027.53 1027.90 1027.90 1028.03
1021.64 1021.68 1022.05 1022.25 1022.67 1023.22 1023.77 1024.19 1024.46 1025.10 1025.95 1026.39 1027.06 1027.82 1028.36 1028.79 1028.74 1028.77 1028.71 1029.06 1028.93 1028.77 1028.30 1027.88 1027.51 1027.27 1027.02 1026.81 1026.60 1026.64 1026.71 1026.84 1026.94 1027.35 1027.53 1027.80 1028.00 1028.13 1028.29 1028.33 1028.58 1028.86 1028.91 1028.89
1022.67 1023.03 1023.23 1023.62 1024.21 1024.52 1024.78 1025.10 1025.59 1026.43 1027.02 1027.30 1027.76 1028.58 1028.99 1029.03 1029.04 1029.12 1029.38 1029.39 1029.37 1029.04 1028.80 1028.50 1028.28 1028.17 1028.04 1027.90 1027.82 1027.83 1027.94 1028.17 1028.43 1028.71 1029.13 1029.50 1029.52 1029.55 1029.85 1029.86 1029.84 1029.86 1029.83 1029.70
1024.00 1024.19 1024.44 1024.69 1024.96 1025.36 1025.76 1026.04 1026.41 1026.95 1027.51 1028.03 1028.43 1028.75 1029.10 1029.42 1029.47 1029.62 1029.70 1029.68 1029.59 1029.40 1029.23 1029.13 1029.07 1029.10 1029.06 1028.90 1028.95 1028.96 1029.10 1029.24 1029.42 1029.47 1029.87 1030.11 1030.59 1030.91 1031.03 1030.66 1030.69 1030.44 1030.30 1030.17
1024.71 1025.02 1025.33 1025.66 1025.98 1026.37 1026.75 1027.03 1027.32 1027.62 1028.16 1028.57 1028.97 1029.27 1029.39 1029.50 1029.65 1029.91 1029.94 1029.89 1029.86 1029.83 1029.79 1029.85 1029.89 1029.78 1029.83 1030.04 1029.93 1029.94 1030.02 1030.07 1030.17 1030.26 1030.38 1030.50 1030.65 1030.76 1030.83 1030.84 1030.80 1030.76 1030.70 1030.66
1025.13 1025.45 1025.79 1026.18 1026.44 1026.74 1027.10 1027.44 1027.62 1027.92 1028.21 1028.59 1028.90 1029.18 1029.30 1029.63 1029.85 1029.80 1029.89 1030.06 1030.16 1030.24 1030.33 1030.32 1030.41 1030.29 1030.47 1030.76 1030.62 1030.61 1030.60 1030.62 1030.62 1030.61 1030.66 1030.70 1030.75 1030.81 1030.84 1030.87 1030.88 1030.87 1030.89 1030.88
1025.44 1025.78 1026.14 1026.37 1026.50 1026.77 1027.07 1027.44 1027.83 1028.17 1028.50 1028.80 1029.00 1029.07 1029.31 1029.53 1029.85 1030.05 1030.12 1030.27 1030.45 1030.59 1030.81 1030.92 1030.55 1030.75 1031.60 1031.21 1031.05 1030.96 1030.90 1030.79 1030.68 1030.66 1030.73 1030.80 1030.86 1030.86 1030.85 1030.86 1030.86 1030.86 1031.00 1031.02
1025.54 1025.87 1026.18 1026.30 1026.69 1026.93 1027.22 1027.56 1028.02 1028.32 1028.68 1029.18 1029.49 1029.81 1029.68 1029.77 1029.91 1030.15 1030.36 1030.49 1030.62 1030.79 1031.00 1031.32 1031.22 1031.22 1031.53 1031.19 1031.03 1030.96 1030.93 1030.73 1030.42 1030.43 1030.66 1030.87 1030.98 1030.82 1030.65 1030.55 1030.62 1030.32 1030.31 1030.13
1026.24 1026.59 1026.95 1027.34 1027.52 1027.65 1027.84 1028.22 1028.65 1028.94 1029.00 1029.26 1029.61 1029.92 1030.05 1030.16 1030.27 1030.36 1030.46 1030.60 1030.68 1030.77 1030.92 1031.18 1030.94 1030.51 1030.54 1030.73 1030.78 1030.45 1030.30 1030.01 1029.77 1029.70 1030.01 1030.27 1030.52 1030.31 1029.96 1029.62 1029.60 1029.55 1029.63 1029.79
Thickness
5498 5506 5511 5515 5521 5530 5525 5529 5533 5554 5557 5570 5562 5566 5566 5568 5574 5581 5582 5585 5588 5590 5589 5591 5594 5593 5593 5595 5596 5602 5609 5605 5606 5607 5606 5605 5605 5604 5603 5602 5600 5599 5597 5595
5483 5503 5507 5510 5523 5529 5535 5537 5535 5538 5545 5562 5564 5566 5562 5558 5559 5561 5559 5558 5563 5567 5570 5573 5574 5577 5576 5576 5579 5586 5589 5589 5589 5593 5596 5599 5600 5600 5600 5599 5599 5597 5597 5596
5464 5477 5485 5503 5523 5529 5540 5547 5546 5543 5556 5556 5554 5561 5557 5550 5543 5532 5529 5538 5544 5546 5550 5555 5558 5554 5557 5560 5565 5571 5573 5575 5576 5577 5580 5582 5584 5588 5593 5595 5596 5597 5596 5593
5450 5466 5472 5523 5529 5542 5546 5554 5551 5553 5554 5552 5541 5533 5528 5530 5531 5520 5516 5525 5519 5525 5531 5534 5539 5542 5544 5545 5549 5553 5556 5557 5558 5561 5566 5568 5570 5572 5573 5576 5580 5588 5592 5591
5442 5453 5489 5512 5527 5529 5534 5543 5550 5549 5541 5526 5528 5523 5507 5509 5506 5501 5501 5500 5503 5510 5510 5517 5523 5526 5526 5527 5530 5532 5535 5538 5540 5544 5548 5550 5553 5553 5556 5560 5560 5559 5556 5558
5438 5446 5456 5512 5521 5533 5535 5534 5542 5542 5533 5529 5540 5525 5499 5492 5487 5485 5485 5487 5491 5493 5491 5497 5502 5506 5505 5507 5511 5513 5513 5515 5520 5523 5526 5529 5532 5534 5536 5537 5535 5533 5532 5530
5435 5439 5462 5501 5512 5519 5514 5525 5533 5540 5536 5534 5524 5516 5486 5474 5470 5470 5472 5476 5474 5474 5473 5476 5482 5487 5491 5491 5491 5491 5494 5498 5501 5504 5506 5508 5512 5513 5514 5514 5513 5511 5510 5508
5432 5440 5450 5491 5504 5511 5516 5512 5516 5520 5515 5500 5490 5481 5472 5464 5462 5460 5462 5464 5463 5464 5464 5466 5470 5474 5474 5476 5472 5475 5477 5479 5481 5484 5487 5490 5492 5493 5494 5495 5493 5489 5487 5483
5443 5453 5464 5471 5481 5486 5496 5499 5499 5495 5489 5486 5480 5467 5460 5450 5448 5443 5446 5447 5446 5448 5449 5450 5453 5459 5463 5461 5460 5459 5459 5462 5463 5464 5466 5467 5469 5468 5469 5468 5468 5466 5464 5462
5445 5452 5450 5455 5458 5464 5470 5478 5478 5474 5472 5463 5458 5447 5443 5436 5432 5428 5428 5430 5431 5434 5437 5439 5440 5443 5446 5445 5443 5441 5441 5441 5443 5444 5445 5444 5445 5444 5442 5440 5439 5438 5437 5437
5446 5444 5446 5437 5438 5439 5441 5447 5453 5450 5446 5441 5440 5430 5427 5423 5419 5417 5416 5417 5419 5420 5421 5420 5418 5418 5422 5425 5422 5423 5424 5424 5423 5423 5424 5422 5419 5417 5415 5412 5411 5409 5407 5405
5438 5439 5442 5426 5420 5421 5429 5426 5425 5424 5420 5416 5415 5410 5407 5404 5402 5399 5396 5397 5399 5398 5397 5397 5397 5398 5399 5401 5403 5402 5405 5404 5402 5402 5401 5398 5395 5392 5389 5386 5384 5383 5379 5377
5414 5411 5412 5410 5406 5406 5408 5408 5403 5401 5399 5393 5391 5389 5387 5385 5380 5381 5378 5377 5378 5376 5376 5378 5379 5380 5378 5379 5380 5383 5385 5381 5379 5377 5375 5372 5369 5365 5361 5358 5356 5355 5353 5349
5396 5407 5402 5401 5391 5391 5393 5389 5385 5382 5381 5379 5376 5374 5373 5370 5366 5364 5363 5358 5356 5357 5360 5360 5358 5357 5359 5360 5361 5363 5361 5360 5357 5353 5351 5348 5344 5341 5337 5333 5328 5323 5321 5321
5390 5394 5390 5383 5381 5378 5377 5376 5372 5368 5364 5362 5360 5359 5356 5353 5349 5346 5344 5341 5341 5344 5345 5344 5344 5343 5343 5343 5341 5339 5339 5336 5334 5331 5328 5324 5320 5314 5310 5306 5301 5298 5298 5296
5381 5380 5380 5378 5373 5371 5369 5365 5358 5350 5347 5343 5340 5339 5336 5334 5331 5328 5328 5329 5329 5325 5323 5321 5322 5320 5322 5321 5319 5318 5317 5316 5314 5310 5306 5302 5297 5292 5286 5282 5278 5274 5272 5269
5376 5375 5374 5371 5366 5363 5360 5356 5351 5348 5344 5339 5334 5331 5325 5321 5319 5315 5310 5308 5305 5302 5301 5299 5298 5301 5302 5302 5302 5299 5298 5294 5291 5289 5284 5280 5275 5272 5267 5261 5256 5250 5245 5243
5356 5355 5358 5357 5353 5349 5344 5340 5337 5334 5327 5321 5316 5309 5305 5302 5298 5291 5286 5284 5285 5284 5281 5280 5282 5283 5284 5283 5282 5281 5278 5275 5271 5267 5262 5258 5254 5249 5244 5239 5233 5227 5220 5216
5338 5338 5337 5334 5331 5327 5321 5318 5315 5312 5306 5302 5296 5287 5281 5278 5273 5268 5267 5267 5264 5263 5261 5263 5266 5265 5264 5264 5263 5260 5256 5252 5249 5244 5239 5233 5229 5225 5220 5213 5206 5200 5195 5191
5321 5321 5319 5317 5314 5310 5304 5301 5299 5293 5285 5281 5275 5269 5263 5255 5252 5253 5251 5247 5244 5244 5245 5246 5246 5245 5244 5241 5239 5236 5232 5228 5225 5218 5214 5208 5202 5196 5193 5188 5182 5174 5168 5165
5308 5305 5303 5299 5293 5291 5290 5286 5282 5274 5268 5264 5260 5252 5245 5240 5237 5235 5235 5233 5229 5229 5228 5227 5226 5224 5222 5219 5216 5211 5207 5202 5196 5191 5184 5177 5174 5169 5163 5156 5151 5146 5141 5137
5293 5291 5288 5285 5282 5277 5273 5270 5265 5258 5252 5244 5237 5232 5231 5229 5223 5221 5216 5215 5213 5210 5209 5207 5205 5202 5199 5197 5192 5187 5182 5177 5171 5166 5159 5152 5146 5140 5135 5131 5126 5121 5116 5112
5281 5278 5275 5271 5267 5262 5257 5253 5248 5243 5236 5231 5226 5221 5219 5217 5211 5204 5200 5200 5197 5193 5191 5187 5183 5180 5176 5171 5166 5160 5156 5150 5145 5139 5133 5127 5122 5116 5112 5108 5103 5098 5094 5092
5271 5267 5263 5258 5254 5251 5245 5239 5235 5229 5222 5219 5213 5208 5207 5198 5192 5193 5189 5184 5178 5173 5169 5165 5162 5158 5153 5148 5142 5136 5131 5125 5119 5114 5111 5106 5100 5096 5091 5087 5084 5081 5080 5079
5262 5258 5253 5248 5246 5240 5234 5228 5222 5217 5212 5208 5203 5198 5193 5188 5179 5175 5170 5165 5161 5155 5149 5145 5140 5134 5129 5123 5117 5111 5107 5103 5099 5095 5090 5085 5082 5078 5076 5074 5072 5071 5070 5068
5255 5250 5244 5240 5234 5228 5223 5218 5210 5204 5197 5188 5182 5174 5171 5168 5164 5158 5150 5144 5139 5133 5126 5120 5115 5110 5105 5100 5095 5091 5088 5084 5081 5077 5074 5071 5069 5068 5067 5066 5065 5063 5062 5061
5239 5232 5227 5220 5215 5211 5207 5202 5194 5187 5180 5173 5166 5158 5151 5143 5138 5133 5126 5119 5113 5108 5103 5099 5095 5091 5086 5082 5078 5076 5073 5071 5069 5067 5065 5063 5061 5060 5060 5059 5058 5057 5054 5052